Regional Weather Roundup
Issued by NWS Charleston, SC

Current Version | Previous Version | Text Only | Print | Product List | Glossary Off
Versions: 1 2 3 4 5 6 7 8 9 10 11 12 13 14 15 16 17 18 19 20 21 22 23 24 25 26 27 28 29 30 31 32 33 34 35 36 37 38 39 40 41 42 43 44 45 46 47 48 49 50
000 ASUS42 KCHS 230727 RWRCHS REGIONAL WEATHER ROUNDUP NATIONAL WEATHER SERVICE CHARLESTON SC 300 AM EDT WED AUG 23 2017 NOTE: "FAIR" INDICATES FEW OR NO CLOUDS BELOW 12,000 FEET WITH NO SIGNIFICANT WEATHER AND/OR OBSTRUCTIONS TO VISIBILITY. NOT ALL STATIONS ARE QUALITY CONTROLLED. USE DATA WITH CAUTION... ESPECIALLY DEWPOINT OBSERVATIONS. SCZ027-030-031-034>040-042>050-230800- ...SOUTHEAST SOUTH CAROLINA... CITY SKY/WX TMP DP RH WIND PRES REMARKS N CHARLESTON MOCLDY 77 76 96 SW5 29.97S WATERFRONT PRK N/A 81 77 88 VRB2 29.81F JOHNS ISLAND FAIR 81 77 89 CALM 29.96F PINOPOLIS N/A 79 77 94 SW7 29.90F MONCKS CORNER FAIR 75 73 94 SW5 29.96F SUMMERVILLE FAIR 75 73 94 CALM 29.97F BEAUFORT MCAS CLEAR 78 77 96 W3 29.98S BEAUFORT ARPT FAIR 79 77 94 SW3 29.97F HILTON HEAD IS PTCLDY 77 77 100 CALM 29.98F WALTERBORO SUNNY 75 73 94 SW5 29.97F ALLENDALE NOT AVBL ...SOUTHERN MIDLANDS AND PEE DEE... CITY SKY/WX TMP DP RH WIND PRES REMARKS GEORGETOWN FAIR 73 72 94 SW3 29.97F KINGSTREE FAIR 73 73 100 CALM 29.95F ORANGEBURG CLEAR 74 73 97 SW3 29.97F BARNWELL FAIR 77 77 100 SW5 29.97S AIKEN FAIR 73 72 94 SW5 30.00F MANNING FAIR 77 70 78 CALM 29.95F COLUMBIA CLEAR 77 72 84 SW5 29.95F SUMTER CLEAR 77 73 88 SW7 29.93F FLORENCE CLEAR 77 76 96 SW7 29.94F MYRTLE BEACH CLEAR 78 75 90 W7 29.96F N MYRTLE BEACH CLEAR 79 75 87 SW8 29.95F $$ GAZ063-065-086>088-099>101-113>116-118-119-134>141-150-230800- ...SOUTHEAST GEORGIA... CITY SKY/WX TMP DP RH WIND PRES REMARKS SAVANNAH ARPT CLEAR 76 75 97 W3 29.99S HUNTER AAF CLEAR 76 74 95 W5 29.96S FORT STEWART CLEAR 77 74 90 SW3 29.97S STATESBORO CLEAR 77 73 85 CALM 29.97F SYLVANIA N/A 76 76 100 CALM 29.99S CLAXTON FAIR 76 75 98 CALM 29.98F FOG ...CSRA...CENTRAL AND FAR SOUTHEAST GEORGIA... CITY SKY/WX TMP DP RH WIND PRES REMARKS THOMSON CLEAR 74 73 96 W3 30.01F AUGUSTA-BUSH CLEAR 74 73 97 S3 29.96F AUGUSTA-DANIEL CLEAR 77 72 84 SE5 29.97F SWAINSBORO FAIR 75 75 100 CALM 29.99F VIDALIA CLEAR 77 73 88 SW3 29.99F EASTMAN FAIR 75 75 100 CALM 30.01F FOG HAZLEHURST FAIR 77 74 88 CALM 29.98F ALMA CLEAR 75 73 93 CALM 29.99F WAYCROSS CLEAR 76 73 90 W5 29.99F JESUP FAIR 75 72 88 CALM 29.99S BAXLEY FAIR 72 72 100 CALM 29.98F BRUNSWICK CLEAR 77 73 88 SW6 29.99F SAINT SIMONS PTCLDY 81 78 91 SW6 29.98F $$ SCZ027-028-034-036>038-045-046-048>050-GAZ119-141-230800- ...LAKE AND SUPPLEMENTAL COASTAL OBSERVATIONS... STATION/POSITION TIME TEMP WIND PRES WAVE SWELL AIR SEA DIR/SP/G HT/PER HT/PER/DIR (UTC) (F) (DEG/KT/KT) (MB) (FT/S) (FT/S/D) WINYAH BAY 0645 79 250/ 4 1015.0S LAKE MURRAY 0720 80 240/ 9/ 11 1012.9 ACE BASIN NERRS 0645 80 CALM 1015.0S FORT PULASKI 0700 81 87 270/ 4/ 5 1015.4 SAPELO ISLAND 0700 81 CALM 1015.0 $$ ANZ835-935-AMZ111-154-330-350-352-354-370-450-454-472-230800- ...C-MAN AND BUOY OBSERVATIONS... STATION/POSITION TIME TEMP WIND PRES WAVE SWELL AIR SEA DIR/SP/G HT/PER HT/PER/DIR (UTC) (F) (DEG/KT/KT) (MB) (FT/S) (FT/S/D) BUOY 41004 0710 83 84 220/ 12/ 16 1014.4 BUOY 41008 0650 84 85 170/ 12/ 14 1015.0F 3/ 9 3/100/ 9 FOLLY BEACH CMAN 0700 83 220/ 11/ 14 1015.2F CAPERS NEARSHORE 0708 81 86 230/ 16/ 19 1014.4F FRIPP NEARSHORE 0708 84 220/ 12/ 16 1014.5F STATION/POSITION TIME TEMP WIND PRES WAVE SWELL AIR SEA DIR/SP/G HT/PER HT/PER/DIR (UTC) (F) (DEG/KT/KT) (MB) (FT/S) (FT/S/D) 5E ST. MARYS GA 0700 84 N/A 3/11 2/130/11 FRYING PAN BUOY 0710 83 84 230/ 16/ 19 1014.1 BUOY 41025 0650 84 85 240/ 17/ 23 1013.6F 5/ 8 3/150/ 8 CAPE LOOKOUT NC 0700 82 230/ 10/ 13 1013.7F BUOY 41002 0650 82 84 160/ 6/ 8 1015.6F 3/ 9 3/100/ 9 BUOY 41010 0710 84 85 160/ 12/ 14 1014.6 ST AUGUSTINE FL 0700 82 82 210/ 3/ 5 1015.5F $$

USA.gov is the U.S. government's official web portal to all federal, state and local government web resources and services.